Location: Fontevrault
(47.1823°N, 0.0493°E)
Time: 18:09:38
(UTC+00:00)

Cosmos 1725 Rocket - Pass Details

Date: 29 October 2021
Orbit: 961 x 991 km, 82.9° (Epoch: 27 November)

Event Time Altitude Azimuth Distance (km) Brightness Sun altitude
Rises 19:38:58 0° 191° (SSW) 3,657 7.0 -29.5°
Reaches altitude 10° 19:41:28 10° 193° (SSW) 2,710 6.3 -29.9°
Maximum altitude 19:47:41 76° 280° (W) 999 4.0 -31.0°
Drops below altitude 10° 19:53:54 10° 6° (N) 2,712 6.4 -32.0°
Sets 19:56:25 0° 8° (N) 3,661 7.1 -32.4°
